[[[{"header":{"parameterUnit":"kt","parameterCategory":2,"dx":1,"dy":1,"la1":30.253999710083008,"la2":30.299108505249023,"lo1":-89.0895004272461,"lo2":-89.04439544677734,"nx":28,"ny":28,"refTime":"2022-10-26T21:00:00:Z","depth":0,"parameterNumber":1,"parameterNumberName":"U-component_of_WINDS"},"data":[-10.957,-10.9801,-10.9774,-11.0026,-11.0043,-11.0211,-11.0263,-11.0326,-11.0369,-11.0568,-11.0677,-11.0673,-11.0706,-11.0831,-11.0949,-11.0944,-11.0998,-11.1101,-11.1079,-11.0638,-11.0575,-11.0515,-11.0458,-11.1113,-11.1113,-11.1539,-11.1543,-11.1547,-10.9255,-10.9275,-10.9399,-10.95,-10.9607,-10.9491,-10.9562,-10.9659,-10.9813,-10.9868,-10.9972,-11.0145,-11.0277,-11.0274,-11.0397,-11.0507,-11.046,-11.0543,-11.0535,-11.0542,-11.007,-11.0009,-11.0579,-11.0579,-11.0579,-11.0579,-11.0579,-11.0579,-10.8675,-10.8814,-10.8857,-10.8991,-10.9034,-10.9102,-10.9231,-10.922,-10.9341,-10.9464,-10.9405,-10.9579,-10.9628,-10.976,-10.9798,-10.9933,-10.9835,-10.9918,-10.9939,-10.9961,-10.9991,-10.9386,-10.9952,-10.995,-10.9949,-10.9947,-10.9946,0,-10.8241,-10.8207,-10.8322,-10.8431,-10.8526,-10.8607,-10.8676,-10.8754,-10.867,-10.8775,-10.8923,-10.9003,-10.9163,-10.93,-10.9407,-10.9428,-10.9318,-10.9302,-10.9359,-10.9392,-10.9409,-10.9406,-10.8639,-10.9286,-10.928,-10.9276,-10.9273,-10.9271,-10.7655,-10.7819,-10.7848,-10.7934,-10.7962,-10.8102,-10.8178,-10.8091,-10.8177,-10.8249,-10.8377,-10.8511,-10.8614,-10.8858,-10.8843,-10.8963,-10.891,-10.9161,-10.8928,-10.8953,-10.8918,-10.891,-10.8927,-10.9209,-10.9217,-10.9223,-10.9229,0,-10.7329,-10.7277,-10.7521,-10.7532,-10.754,-10.7718,-10.7727,-10.7863,-10.7835,-10.8018,-10.8056,-10.8015,-10.8162,-10.8105,-10.8261,-10.8228,-10.8526,-10.847,-10.8509,-10.8496,-10.8717,-10.8698,-10.9437,-10.9531,-10.8849,-10.8855,-10.8861,0,-10.6809,-10.7028,-10.6938,-10.7082,-10.7323,-10.7227,-10.7469,-10.7468,-10.7505,-10.7648,-10.7511,-10.7649,-10.7553,-10.7684,-10.7634,-10.7866,-10.7894,-10.7883,-10.7868,-10.7897,-10.79,-10.7943,-10.7913,-10.7823,-10.7819,-10.7815,-10.7813,0,-10.6305,-10.6511,-10.6744,-10.6783,-10.6815,-10.6928,-10.6947,-10.6985,-10.7061,-10.7149,-10.7198,-10.7309,-10.737,-10.7459,-10.7394,-10.7239,-10.7676,-10.7448,-10.7665,-10.7667,-10.7766,-10.7761,-10.8428,-10.7808,-10.7807,-10.7806,-10.7804,0,-10.5877,-10.5966,-10.6312,-10.6334,-10.6392,-10.6546,-10.6647,-10.6764,-10.6815,-10.6792,-10.6861,-10.6762,-10.6957,-10.6736,-10.7004,-10.682,-10.689,-10.6895,-10.6909,-10.6925,-10.6679,-10.7067,-10.7706,-10.7772,-10.6939,-10.6932,-10.6925,0,-10.5317,-10.5649,-10.5567,-10.5897,-10.6042,-10.5876,-10.6046,-10.6093,-10.6076,-10.6198,-10.6178,-10.6319,-10.6141,-10.6176,-10.6316,-10.6303,-10.6543,-10.6269,-10.6452,-10.646,-10.6446,-10.7032,-10.7143,-10.7572,-10.6832,-10.6842,-10.6849,0,-10.4874,-10.4907,-10.4971,-10.5011,-10.5055,-10.5175,-10.5369,-10.5484,-10.557,-10.5637,-10.5799,-10.5992,-10.5867,-10.5926,-10.5856,-10.6006,-10.6378,-10.5851,-10.585,-10.5951,-10.6778,-10.6883,-10.6955,-10.6299,-10.631,-10.6319,-10.6775,0,-10.4245,-10.4402,-10.4572,-10.4661,-10.4743,-10.4944,-10.4878,-10.4973,-10.4896,-10.4872,-10.5107,-10.5129,-10.5248,-10.5312,-10.5238,-10.5597,-10.5528,-10.5392,-10.5173,-10.5557,-10.5706,-10.5767,-10.4957,-10.495,-10.4944,-10.4939,0,0,-10.3724,-10.3945,-10.3846,-10.4028,-10.4091,-10.3913,-10.4135,-10.4176,-10.4263,-10.4312,-10.4189,-10.4465,-10.4489,-10.4782,-10.4896,-10.4943,-10.5003,-10.487,-10.5374,-10.5423,-10.5468,-10.5628,-10.5692,-10.4929,-10.4927,-10.4925,-10.4923,0,-10.3479,-10.3501,-10.3719,-10.3757,-10.3807,-10.3769,-10.3822,-10.3841,-10.3835,-10.4062,-10.3913,-10.4046,-10.4268,-10.4313,-10.4366,-10.4832,-10.4714,-10.4873,-10.5147,-10.5318,-10.5375,-10.5424,-10.5594,-10.5655,-10.4909,-10.491,-10.491,0,-10.3033,-10.3045,-10.3142,-10.3273,-10.3305,-10.3457,-10.321,-10.338,-10.3493,-10.3289,-10.3517,-10.3521,-10.3574,-10.3858,-10.3983,-10.3874,-10.4455,-10.4258,-10.4292,-10.4305,-10.4467,-10.4535,-10.4596,-10.38,-10.3796,-10.3793,0,0,-10.2831,-10.2974,-10.2957,-10.3215,-10.3245,-10.319,-10.3263,-10.3192,-10.3242,-10.3263,-10.3263,-10.3319,-10.3446,-10.3533,-10.3649,-10.3969,-10.3974,-10.4124,-10.4176,-10.4219,-10.4256,-10.4429,-10.4497,-10.3779,-10.3779,-10.3779,0,0,-10.2734,-10.2725,-10.2636,-10.2926,-10.2978,-10.2979,-10.3141,-10.3033,-10.313,-10.3099,-10.2989,-10.2999,-10.3262,-10.3271,-10.3097,-10.357,-10.3354,-10.3394,-10.3554,-10.362,-10.3671,-10.3664,-10.2848,0,0,0,0,0,-10.2448,-10.2725,-10.2645,-10.2683,-10.2848,-10.3024,-10.3044,-10.2958,-10.2807,-10.2938,-10.2921,-10.2787,-10.3155,-10.2998,-10.3039,-10.3234,-10.3604,-10.3635,-10.3665,-10.3946,-10.4015,-10.4073,0,0,0,0,0,0,-10.2462,-10.2509,-10.2637,-10.2652,-10.2688,-10.3013,-10.2739,-10.2723,-10.2791,-10.2762,-10.2794,-10.2788,-10.2719,-10.2972,-10.301,-10.3197,-10.2834,-10.3617,-10.3643,-10.3667,-10.397,-10.4026,-10.4075,0,0,0,0,0,-10.2473,-10.251,-10.2796,-10.2647,-10.2679,-10.2631,-10.2727,-10.2712,-10.2763,-10.2737,-10.2726,-10.2692,-10.2726,-10.2752,-10.2994,-10.3182,-10.2808,-10.2822,-10.3634,-10.3654,-10.3673,-10.3998,0,0,0,0,0,0,-10.248,-10.2498,-10.28,-10.2806,-10.2535,-10.2611,-10.2619,-10.2703,-10.2732,-10.2724,-10.2628,-10.2605,-10.2735,-10.2754,-10.2775,-10.3182,-10.2786,-10.28,-10.281,-10.365,-10.3666,-10.368,0,0,0,0,0,0,-10.2477,-10.2505,-10.2803,-10.2666,-10.2656,-10.2593,-10.2601,-10.2792,-10.2735,-10.2621,-10.2602,-10.2618,-10.2704,-10.2757,-10.2772,-10.3075,-10.2769,-10.2783,-10.2793,-10.2799,-10.3663,-10.3676,0,0,0,0,0,0,-10.2487,-10.2511,-10.2663,-10.2656,-10.2646,-10.2712,-10.276,-10.2935,-10.2615,-10.2623,-10.2584,-10.257,-10.2711,-10.2725,-10.2771,-10.3068,-10.3073,-10.2769,-10.2779,-10.2786,-10.279,0,0,0,0,0,0,0,-10.2495,-10.2356,-10.2762,-10.2648,-10.2639,-10.2866,-10.2868,-10.2869,-10.2612,-10.26,-10.2588,-10.2576,-10.2688,-10.2704,-10.2719,-10.3063,0,0,-10.2768,-10.2775,0,0,0,0,0,0,0,0,-10.2344,-10.2353,-10.2762,-10.2764,-10.2765,-10.2866,-10.2867,-10.2869,-10.261,-10.26,-10.259,-10.2581,-10.2692,-10.2705,-10.2718,0,0,0,0,0,0,0,0,0,0,0,0,0,0,0,-10.2762,-10.2763,0,-10.2866,-10.2867,-10.2869,-10.2609,-10.2601,-10.2592,-10.2585,-10.2696,-10.2706,-10.2717,0,0,0,0,0,0,0,0,0,0,0,0,0,0,0,0,0,0,0,0,0,0,0,0,0,0,0,0,0,0,0,0,0,0,0,0,0,0,0,0,0,0,0,0,0,0,0,0,0,0,0,0,0,0,0,0,0,0,0,0,0,0,0,0,0,0,0,0,0]}],[{"header":{"parameterUnit":"kt","parameterCategory":2,"dx":1,"dy":1,"la1":30.253999710083008,"la2":30.299108505249023,"lo1":-89.0895004272461,"lo2":-89.04439544677734,"nx":28,"ny":28,"refTime":"2022-10-26T21:00:00:Z","depth":0,"parameterNumber":2,"parameterNumberName":"V-component_of_WINDS"},"data":[-2.8392,-2.8425,-2.8411,-2.8442,-2.8435,-2.8454,-2.8457,-2.8459,-2.8457,-2.8478,-2.8488,-2.8478,-2.8472,-2.8481,-2.8491,-2.8487,-2.8492,-2.8512,-2.8504,-2.8425,-2.8413,-2.8402,-2.8393,-2.8514,-2.8514,-2.8588,-2.8588,-2.8589,-2.833,-2.8323,-2.8336,-2.834,-2.8351,-2.8322,-2.8323,-2.8334,-2.8352,-2.8351,-2.8361,-2.8379,-2.8392,-2.8379,-2.839,-2.8405,-2.8393,-2.8408,-2.8408,-2.8407,-2.8322,-2.8313,-2.8418,-2.8418,-2.8418,-2.8418,-2.8418,-2.8418,-2.8214,-2.8234,-2.8229,-2.8243,-2.8242,-2.8245,-2.8262,-2.825,-2.8264,-2.8273,-2.8256,-2.8277,-2.8274,-2.8282,-2.8282,-2.8297,-2.8278,-2.8292,-2.8296,-2.83,-2.8305,-2.8198,-2.8299,-2.8299,-2.8298,-2.8298,-2.8298,0,-2.8125,-2.8112,-2.8125,-2.8133,-2.8143,-2.8149,-2.8152,-2.8163,-2.8134,-2.8146,-2.8163,-2.8171,-2.8187,-2.8202,-2.821,-2.8208,-2.8182,-2.8178,-2.8187,-2.8196,-2.8202,-2.8199,-2.806,-2.8176,-2.8175,-2.8174,-2.8174,-2.8173,-2.8006,-2.8033,-2.8022,-2.8033,-2.8032,-2.805,-2.8058,-2.8031,-2.8041,-2.8042,-2.8062,-2.8077,-2.8088,-2.8118,-2.8106,-2.8119,-2.8107,-2.8152,-2.8109,-2.8115,-2.8107,-2.8106,-2.8108,-2.8161,-2.8163,-2.8164,-2.8165,0,-2.794,-2.792,-2.7958,-2.7946,-2.7943,-2.7973,-2.7963,-2.7983,-2.7971,-2.7997,-2.8002,-2.7983,-2.8001,-2.7982,-2.8,-2.7989,-2.8036,-2.8024,-2.8036,-2.8032,-2.8071,-2.8067,-2.82,-2.8215,-2.809,-2.8091,-2.8092,0,-2.7832,-2.7869,-2.7837,-2.786,-2.79,-2.7872,-2.7912,-2.7905,-2.7903,-2.7924,-2.7891,-2.7912,-2.7884,-2.7902,-2.7887,-2.7922,-2.7925,-2.792,-2.7915,-2.7923,-2.7924,-2.793,-2.7924,-2.7905,-2.7904,-2.7904,-2.7903,0,-2.7732,-2.7759,-2.7797,-2.78,-2.7793,-2.7811,-2.7809,-2.7807,-2.7817,-2.7826,-2.7831,-2.7844,-2.7852,-2.7862,-2.7842,-2.7813,-2.7885,-2.7842,-2.7879,-2.788,-2.7898,-2.7897,-2.8017,-2.7902,-2.7902,-2.7902,-2.7902,0,-2.7642,-2.7652,-2.771,-2.7703,-2.7711,-2.7737,-2.7747,-2.7765,-2.7766,-2.7758,-2.7765,-2.7742,-2.7772,-2.773,-2.7771,-2.7739,-2.7747,-2.7745,-2.7747,-2.775,-2.7704,-2.7775,-2.7891,-2.7902,-2.775,-2.7749,-2.7747,0,-2.7532,-2.7587,-2.7565,-2.7621,-2.7644,-2.7605,-2.7633,-2.7636,-2.7628,-2.7645,-2.7636,-2.7658,-2.7623,-2.7627,-2.765,-2.7642,-2.7683,-2.7636,-2.7662,-2.7663,-2.7663,-2.7769,-2.7791,-2.7867,-2.7731,-2.7733,-2.7734,0,-2.7446,-2.7438,-2.745,-2.7452,-2.7453,-2.7473,-2.7505,-2.752,-2.7533,-2.7541,-2.7567,-2.7598,-2.7572,-2.7581,-2.7564,-2.7589,-2.7654,-2.7559,-2.7559,-2.7577,-2.7722,-2.7742,-2.7755,-2.7638,-2.764,-2.7641,-2.7721,0,-2.7314,-2.734,-2.7371,-2.7381,-2.7393,-2.7429,-2.741,-2.7425,-2.7408,-2.7399,-2.7438,-2.7438,-2.7456,-2.7466,-2.7451,-2.7513,-2.75,-2.7474,-2.7433,-2.7503,-2.7529,-2.7539,-2.7396,-2.7394,-2.7393,-2.7392,0,0,-2.7214,-2.7252,-2.7228,-2.7259,-2.7268,-2.723,-2.727,-2.7274,-2.7286,-2.7293,-2.7269,-2.7314,-2.7316,-2.7366,-2.7386,-2.7394,-2.7403,-2.7381,-2.747,-2.7479,-2.7487,-2.7515,-2.7526,-2.739,-2.739,-2.739,-2.7389,0,-2.7162,-2.7164,-2.7204,-2.7207,-2.7212,-2.7202,-2.7211,-2.721,-2.7207,-2.7246,-2.7215,-2.7237,-2.7275,-2.728,-2.7288,-2.7373,-2.735,-2.738,-2.7431,-2.7459,-2.747,-2.7479,-2.7508,-2.7519,-2.7387,-2.7387,-2.7387,0,-2.7074,-2.7072,-2.709,-2.711,-2.7114,-2.714,-2.7091,-2.7122,-2.7141,-2.71,-2.714,-2.7139,-2.7145,-2.7196,-2.7218,-2.7198,-2.7302,-2.7267,-2.7274,-2.7276,-2.7303,-2.7315,-2.7326,-2.7182,-2.7182,-2.7181,0,0,-2.7032,-2.7057,-2.7049,-2.7098,-2.7102,-2.7088,-2.7101,-2.7086,-2.7092,-2.7095,-2.7093,-2.7101,-2.7122,-2.7137,-2.7157,-2.7215,-2.7214,-2.7243,-2.7252,-2.726,-2.7267,-2.7296,-2.7308,-2.7179,-2.7179,-2.7178,0,0,-2.7013,-2.7005,-2.6986,-2.7042,-2.7048,-2.7045,-2.7076,-2.7053,-2.7069,-2.7064,-2.704,-2.7042,-2.7089,-2.7089,-2.7058,-2.7142,-2.7102,-2.7109,-2.7141,-2.7153,-2.7162,-2.7162,-2.7011,0,0,0,0,0,-2.6951,-2.7005,-2.6989,-2.6995,-2.7023,-2.7054,-2.7057,-2.7039,-2.701,-2.7034,-2.7029,-2.7003,-2.7067,-2.7039,-2.7046,-2.7082,-2.7147,-2.7153,-2.7158,-2.7212,-2.7225,-2.7235,0,0,0,0,0,0,-2.6954,-2.6962,-2.6987,-2.6986,-2.6992,-2.7051,-2.6998,-2.6995,-2.7007,-2.7001,-2.7005,-2.7003,-2.6989,-2.7034,-2.7041,-2.7075,-2.7009,-2.7149,-2.7154,-2.7158,-2.7216,-2.7227,-2.7236,0,0,0,0,0,-2.6956,-2.6962,-2.7012,-2.6985,-2.6991,-2.6979,-2.6996,-2.6993,-2.7002,-2.6995,-2.6992,-2.6987,-2.699,-2.6995,-2.7038,-2.7072,-2.7004,-2.7006,-2.7152,-2.7156,-2.7159,-2.7221,0,0,0,0,0,0,-2.6957,-2.696,-2.7012,-2.7013,-2.6964,-2.6975,-2.6976,-2.6991,-2.6994,-2.6992,-2.6975,-2.6971,-2.6992,-2.6995,-2.6999,-2.7073,-2.7,-2.7002,-2.7004,-2.7155,-2.7158,-2.7161,0,0,0,0,0,0,-2.6956,-2.6961,-2.7013,-2.6987,-2.6985,-2.6972,-2.6973,-2.7008,-2.6995,-2.6975,-2.6971,-2.6973,-2.6987,-2.6996,-2.6999,-2.7054,-2.6997,-2.6999,-2.7001,-2.7002,-2.7158,-2.716,0,0,0,0,0,0,-2.6957,-2.6962,-2.6987,-2.6985,-2.6983,-2.6992,-2.7002,-2.7032,-2.6972,-2.6975,-2.6966,-2.6963,-2.6988,-2.6991,-2.6999,-2.7053,-2.7054,-2.6997,-2.6999,-2.7,-2.7001,0,0,0,0,0,0,0,-2.6959,-2.6936,-2.7007,-2.6983,-2.6981,-2.7022,-2.7022,-2.7022,-2.6971,-2.6969,-2.6967,-2.6965,-2.6982,-2.6985,-2.6988,-2.7052,0,0,-2.6997,-2.6998,0,0,0,0,0,0,0,0,-2.6934,-2.6935,-2.7007,-2.7007,-2.7007,-2.7022,-2.7022,-2.7022,-2.6971,-2.6969,-2.6967,-2.6965,-2.6983,-2.6985,-2.6987,0,0,0,0,0,0,0,0,0,0,0,0,0,0,0,-2.7007,-2.7007,0,-2.7022,-2.7022,-2.7022,-2.6971,-2.6969,-2.6968,-2.6966,-2.6984,-2.6985,-2.6987,0,0,0,0,0,0,0,0,0,0,0,0,0,0,0,0,0,0,0,0,0,0,0,0,0,0,0,0,0,0,0,0,0,0,0,0,0,0,0,0,0,0,0,0,0,0,0,0,0,0,0,0,0,0,0,0,0,0,0,0,0,0,0,0,0,0,0,0,0]}]]]